[[{"header":{"parameterUnit":"m.s-1","parameterCategory":1,"la1":30.2991,"la2":30.254,"lo1":-89.0895,"lo2":-89.0444,"dy":0.0017,"dx":0.0017,"nx":28,"ny":28,"refTime":"2023-10-24T09:00:00:Z","depth":0,"parameterNumber":2,"parameterNumberName":"U-component_of_WINDS"},"data":[0,0,0,0,0,0,0,0,0,0,0,0,0,0,0,0,0,0,0,0,0,0,0,0,0,0,0,0,0,0,0,0,0,0,0,0,0,0,0,0,0,0,0,0,0,0,0,0,0,0,0,0,0,0,0,0,0,0,-4.8434,-4.8435,0,-4.8535,-4.8536,-4.8537,-4.8442,-4.8438,-4.8434,-4.8431,-4.8529,-4.8535,-4.8542,0,0,0,0,0,0,0,0,0,0,0,0,0,-4.8158,-4.8163,-4.8434,-4.8435,-4.8437,-4.8535,-4.8536,-4.8538,-4.8443,-4.8438,-4.8434,-4.8429,-4.8527,-4.8535,-4.8542,0,0,0,0,0,0,0,0,0,0,0,0,0,-4.827,-4.8165,-4.8434,-4.8401,-4.8399,-4.8535,-4.8536,-4.8538,-4.8444,-4.8438,-4.8432,-4.8427,-4.8525,-4.8534,-4.8543,-4.8714,0,0,-4.8571,-4.8575,0,0,0,0,0,0,0,0,-4.8264,-4.828,-4.8405,-4.8404,-4.8402,-4.847,-4.8475,-4.8597,-4.8445,-4.8427,-4.8431,-4.8424,-4.8514,-4.8524,-4.8555,-4.8719,-4.8723,-4.8572,-4.8578,-4.8582,-4.8584,0,0,0,0,0,0,0,-4.8256,-4.8275,-4.8474,-4.8407,-4.8405,-4.8381,-4.8391,-4.8497,-4.8501,-4.8428,-4.8421,-4.8435,-4.8512,-4.8546,-4.8557,-4.8724,-4.8572,-4.858,-4.8586,-4.8589,-4.9036,-4.9042,0,0,0,0,0,0,-4.8252,-4.827,-4.8471,-4.8477,-4.8318,-4.8391,-4.8402,-4.8454,-4.85,-4.8501,-4.844,-4.843,-4.8533,-4.8546,-4.856,-4.8764,-4.8582,-4.859,-4.8596,-4.903,-4.9037,-4.9044,0,0,0,0,0,0,-4.8247,-4.8271,-4.8467,-4.8372,-4.8395,-4.8402,-4.8461,-4.8459,-4.8493,-4.8508,-4.8508,-4.8474,-4.8529,-4.8547,-4.8677,-4.8766,-4.8594,-4.8603,-4.9022,-4.9032,-4.9041,-4.9173,0,0,0,0,0,0,-4.8239,-4.827,-4.8335,-4.8374,-4.84,-4.8583,-4.8467,-4.8465,-4.851,-4.8498,-4.8541,-4.8542,-4.8526,-4.8664,-4.8687,-4.8775,-4.861,-4.9014,-4.9026,-4.9038,-4.916,-4.9185,-4.9207,0,0,0,0,0,-4.823,-4.8366,-4.8339,-4.8363,-4.8482,-4.8588,-4.8603,-4.8583,-4.8517,-4.8583,-4.8593,-4.8541,-4.8753,-4.8678,-4.8703,-4.8796,-4.9008,-4.9023,-4.9037,-4.915,-4.918,-4.9206,0,0,0,0,0,0,-4.8334,-4.837,-4.834,-4.8494,-4.8539,-4.8572,-4.8653,-4.8616,-4.868,-4.8666,-4.8638,-4.8648,-4.8787,-4.8804,-4.872,-4.8965,-4.887,-4.889,-4.8948,-4.8977,-4.9,-4.8991,-4.8618,0,0,0,0,0,-4.8376,-4.8461,-4.8487,-4.862,-4.8645,-4.8646,-4.8691,-4.8673,-4.8718,-4.8736,-4.8756,-4.8801,-4.8878,-4.8928,-4.9,-4.9164,-4.9172,-4.924,-4.9263,-4.9282,-4.9299,-4.9388,-4.9419,-4.9091,-4.9091,-4.909,0,0,-4.8461,-4.8491,-4.8546,-4.8642,-4.8675,-4.8763,-4.8662,-4.8758,-4.8823,-4.875,-4.8875,-4.8892,-4.894,-4.9089,-4.9155,-4.9108,-4.9393,-4.9301,-4.9316,-4.9322,-4.9406,-4.9437,-4.9465,-4.91,-4.9099,-4.9097,0,0,-4.8661,-4.8693,-4.8807,-4.8844,-4.8897,-4.8897,-4.8926,-4.8966,-4.8975,-4.9101,-4.9048,-4.9125,-4.9258,-4.9295,-4.9332,-4.9552,-4.9506,-4.9577,-4.9697,-4.9784,-4.981,-4.9833,-4.9912,-4.994,-4.9593,-4.9594,-4.9594,0,-4.8759,-4.889,-4.8871,-4.8973,-4.9017,-4.8959,-4.9075,-4.9111,-4.9183,-4.9215,-4.9162,-4.933,-4.9358,-4.9515,-4.957,-4.9602,-4.9632,-4.9569,-4.9808,-4.9831,-4.9852,-4.9927,-4.9956,-4.9602,-4.9601,-4.96,-4.9599,0,-4.9009,-4.9101,-4.9188,-4.9263,-4.9317,-4.9425,-4.9422,-4.948,-4.9459,-4.9465,-4.9595,-4.9628,-4.9706,-4.9743,-4.9721,-4.9899,-4.9868,-4.9813,-4.9716,-4.9892,-4.9961,-4.999,-4.9613,-4.9611,-4.9608,-4.9606,0,0,-4.9271,-4.9339,-4.9371,-4.9405,-4.9462,-4.9532,-4.9639,-4.9718,-4.9768,-4.9822,-4.9911,-5.0028,-4.9978,-5.002,-5.0003,-5.008,-5.0254,-5.0015,-5.0016,-5.0058,-5.0451,-5.0491,-5.0524,-5.0226,-5.0231,-5.0235,-5.0447,0,-4.9473,-4.966,-4.9648,-4.9823,-4.9909,-4.9858,-4.9951,-4.9996,-5.0007,-5.0081,-5.0092,-5.0175,-5.0104,-5.0129,-5.0203,-5.0217,-5.0332,-5.0202,-5.0307,-5.0311,-5.0294,-5.0561,-5.0602,-5.08,-5.0474,-5.0479,-5.0482,0,-4.973,-4.9797,-4.9982,-5.0029,-5.0064,-5.0149,-5.0222,-5.0294,-5.0344,-5.0347,-5.0397,-5.0368,-5.0477,-5.0381,-5.053,-5.0442,-5.0485,-5.0499,-5.0506,-5.0513,-5.0405,-5.0573,-5.0862,-5.0891,-5.0525,-5.0521,-5.0518,0,-4.9903,-5.0038,-5.0167,-5.0198,-5.0257,-5.0317,-5.0344,-5.039,-5.0439,-5.0504,-5.0536,-5.0612,-5.0653,-5.0712,-5.0705,-5.0636,-5.0858,-5.0761,-5.0862,-5.0862,-5.0907,-5.0904,-5.1206,-5.0939,-5.0939,-5.0938,-5.0938,0,-5.0127,-5.0242,-5.0246,-5.0325,-5.0453,-5.044,-5.0566,-5.0586,-5.0629,-5.0711,-5.0672,-5.0749,-5.0737,-5.0815,-5.081,-5.0935,-5.0954,-5.0959,-5.0956,-5.0961,-5.096,-5.0986,-5.0972,-5.0946,-5.0944,-5.0943,-5.0942,0,-5.0339,-5.0346,-5.0483,-5.053,-5.0544,-5.0637,-5.0675,-5.075,-5.076,-5.0865,-5.0888,-5.0903,-5.0993,-5.0994,-5.1096,-5.1094,-5.1246,-5.1228,-5.1229,-5.1225,-5.1326,-5.1316,-5.1653,-5.1696,-5.1403,-5.1406,-5.1409,0,-5.048,-5.0568,-5.0625,-5.0679,-5.071,-5.0796,-5.0848,-5.084,-5.0895,-5.0963,-5.103,-5.1118,-5.1186,-5.1334,-5.1353,-5.1432,-5.1414,-5.1528,-5.1425,-5.1429,-5.1415,-5.1409,-5.1418,-5.1546,-5.1549,-5.1552,-5.1554,0,-5.0729,-5.073,-5.0807,-5.0887,-5.0951,-5.1013,-5.107,-5.1116,-5.1114,-5.1179,-5.1272,-5.1326,-5.1434,-5.1521,-5.1598,-5.1625,-5.159,-5.1587,-5.1615,-5.1619,-5.1616,-5.1618,-5.1282,-5.1578,-5.1576,-5.1574,-5.1573,-5.1572,-5.0909,-5.0985,-5.1039,-5.1127,-5.1171,-5.1226,-5.13,-5.1321,-5.14,-5.1487,-5.1478,-5.1583,-5.1635,-5.1736,-5.177,-5.1851,-5.1812,-5.1851,-5.1861,-5.187,-5.1881,-5.1606,-5.1866,-5.1865,-5.1864,-5.1864,-5.1863,0,-5.1155,-5.1189,-5.127,-5.1354,-5.1424,-5.1389,-5.1452,-5.1512,-5.1605,-5.1657,-5.1728,-5.1837,-5.1923,-5.1952,-5.2035,-5.2095,-5.2081,-5.2117,-5.2111,-5.2118,-5.1912,-5.188,-5.2127,-5.2127,-5.2127,-5.2127,-5.2127,-5.2126,-5.1291,-5.142,-5.1428,-5.1578,-5.1611,-5.1714,-5.1753,-5.1805,-5.1847,-5.1972,-5.2044,-5.2063,-5.2107,-5.2194,-5.2272,-5.2278,-5.231,-5.2353,-5.2352,-5.2159,-5.2132,-5.2106,-5.2076,-5.236,-5.2361,-5.2551,-5.2553,-5.2554]},{"header":{"parameterUnit":"m.s-1","parameterCategory":1,"la1":30.2991,"la2":30.254,"lo1":-89.0895,"lo2":-89.0444,"dy":0.0017,"dx":0.0017,"nx":28,"ny":28,"refTime":"2023-10-24T09:00:00:Z","depth":0,"parameterNumber":3,"parameterNumberName":"V-component_of_WINDS"},"data":[0,0,0,0,0,0,0,0,0,0,0,0,0,0,0,0,0,0,0,0,0,0,0,0,0,0,0,0,0,0,0,0,0,0,0,0,0,0,0,0,0,0,0,0,0,0,0,0,0,0,0,0,0,0,0,0,0,0,0.7928,0.7928,0,0.7878,0.7877,0.7877,0.7783,0.7781,0.7779,0.7777,0.7725,0.7725,0.7725,0,0,0,0,0,0,0,0,0,0,0,0,0,0.7945,0.7945,0.7928,0.7928,0.7927,0.7878,0.7877,0.7877,0.7783,0.7781,0.7779,0.7777,0.7725,0.7725,0.7726,0,0,0,0,0,0,0,0,0,0,0,0,0,0.792,0.7945,0.7928,0.7874,0.7869,0.7878,0.7877,0.7876,0.7784,0.7781,0.7778,0.7776,0.7725,0.7725,0.7726,0.7783,0,0,0.7727,0.7727,0,0,0,0,0,0,0,0,0.7922,0.792,0.7883,0.7878,0.7872,0.7834,0.7864,0.7845,0.7784,0.7816,0.7777,0.7774,0.7763,0.776,0.7757,0.778,0.7778,0.7727,0.7727,0.7727,0.7728,0,0,0,0,0,0,0,0.7924,0.7922,0.7908,0.7883,0.7876,0.7853,0.7847,0.786,0.7805,0.7813,0.7806,0.7801,0.776,0.7757,0.7755,0.7777,0.7727,0.7727,0.7728,0.7728,0.7849,0.7852,0,0,0,0,0,0,0.7933,0.7924,0.791,0.7907,0.7891,0.7855,0.7848,0.7849,0.7805,0.7796,0.7804,0.7797,0.7757,0.7755,0.7753,0.7819,0.7727,0.7728,0.7728,0.7846,0.785,0.7853,0,0,0,0,0,0,0.7934,0.7933,0.7912,0.7913,0.7909,0.7858,0.786,0.7849,0.7846,0.7798,0.7788,0.7811,0.7755,0.7752,0.7777,0.7816,0.7728,0.7728,0.7843,0.7847,0.7852,0.7951,0,0,0,0,0,0,0.7935,0.7934,0.7954,0.7915,0.7909,0.7937,0.7862,0.785,0.7847,0.7838,0.7802,0.7793,0.7753,0.7777,0.7778,0.7815,0.7729,0.7839,0.7845,0.785,0.7944,0.7959,0.7971,0,0,0,0,0,0.7936,0.7983,0.7956,0.7955,0.7934,0.7939,0.7936,0.7889,0.7851,0.7872,0.7842,0.7794,0.7812,0.778,0.778,0.7818,0.7836,0.7843,0.785,0.7938,0.7956,0.7971,0,0,0,0,0,0,0.8027,0.7977,0.7946,0.7982,0.7966,0.7923,0.7947,0.7908,0.7902,0.7894,0.7835,0.7828,0.7861,0.7842,0.7808,0.7873,0.7817,0.7824,0.7885,0.7901,0.7914,0.7918,0.7729,0,0,0,0,0,0.8052,0.8061,0.8016,0.8052,0.8046,0.7999,0.7999,0.7965,0.7945,0.7937,0.7909,0.7892,0.7894,0.7896,0.7895,0.7942,0.7934,0.7968,0.7982,0.7993,0.7999,0.8026,0.8041,0.7875,0.7875,0.7875,0,0,0.8102,0.8076,0.8084,0.807,0.8053,0.8064,0.7993,0.8007,0.8015,0.7939,0.7962,0.7941,0.7918,0.7955,0.797,0.794,0.8044,0.8001,0.8011,0.8011,0.8034,0.805,0.8064,0.788,0.7879,0.7878,0,0,0.82,0.818,0.821,0.8196,0.8172,0.8141,0.8149,0.8113,0.8097,0.8118,0.8063,0.8072,0.8076,0.8063,0.8057,0.8155,0.8113,0.8157,0.8226,0.8252,0.8266,0.8277,0.8314,0.8328,0.8163,0.8164,0.8164,0,0.8265,0.8279,0.823,0.8248,0.8244,0.8179,0.8209,0.8198,0.8175,0.8174,0.8142,0.8148,0.8128,0.8162,0.8187,0.8184,0.8192,0.816,0.8268,0.8279,0.8288,0.8323,0.8337,0.8169,0.8169,0.8168,0.8168,0,0.8362,0.8373,0.84,0.8382,0.8381,0.8405,0.836,0.8366,0.8333,0.8306,0.8331,0.8305,0.83,0.8305,0.8272,0.8336,0.8319,0.8278,0.822,0.8311,0.8343,0.8355,0.8177,0.8175,0.8174,0.8172,0,0,0.8513,0.847,0.8481,0.8474,0.8445,0.8453,0.8476,0.8471,0.8478,0.8466,0.8484,0.8491,0.8455,0.8448,0.8413,0.8436,0.8519,0.8393,0.8391,0.8419,0.8592,0.8623,0.8639,0.8491,0.8493,0.8495,0.8594,0,0.8605,0.8641,0.8599,0.8645,0.8656,0.8596,0.8616,0.8602,0.8578,0.8585,0.8558,0.8565,0.8515,0.8511,0.8532,0.8505,0.8553,0.8497,0.8509,0.851,0.8517,0.8655,0.8688,0.8782,0.8606,0.8608,0.8609,0,0.8716,0.8712,0.8759,0.8731,0.8734,0.8753,0.8748,0.8754,0.8738,0.8719,0.8715,0.8674,0.8696,0.8641,0.8671,0.8634,0.8637,0.8625,0.8627,0.8627,0.8565,0.866,0.8811,0.8826,0.8628,0.8627,0.8625,0,0.8824,0.8829,0.8859,0.8854,0.8822,0.8837,0.8825,0.8805,0.8807,0.8802,0.8803,0.8801,0.88,0.88,0.8761,0.8724,0.8798,0.8738,0.8784,0.8785,0.8802,0.8801,0.8957,0.8803,0.8802,0.8802,0.8802,0,0.8931,0.8962,0.8908,0.8926,0.8961,0.8913,0.8949,0.893,0.8915,0.893,0.8878,0.8893,0.884,0.885,0.8819,0.8851,0.885,0.8837,0.8829,0.8842,0.8844,0.8843,0.8836,0.8806,0.8805,0.8804,0.8804,0,0.9056,0.902,0.9049,0.9018,0.9011,0.9039,0.9012,0.9028,0.9003,0.9023,0.9025,0.8985,0.8995,0.8956,0.8958,0.8938,0.8986,0.8966,0.8992,0.8986,0.9035,0.9032,0.9196,0.9216,0.9048,0.905,0.9051,0,0.9127,0.915,0.9123,0.913,0.912,0.9131,0.9133,0.9089,0.9093,0.9079,0.9098,0.9104,0.9106,0.9124,0.9096,0.9098,0.9079,0.9136,0.9079,0.9093,0.9082,0.9081,0.9085,0.9148,0.915,0.9152,0.9153,0,0.9257,0.9239,0.9244,0.9245,0.925,0.9248,0.9242,0.9251,0.9203,0.9211,0.9221,0.9223,0.9227,0.9234,0.9232,0.9219,0.918,0.9172,0.9183,0.9197,0.9212,0.9207,0.9026,0.9168,0.9167,0.9166,0.9165,0.9164,0.9358,0.9377,0.9362,0.9371,0.9363,0.936,0.9375,0.9353,0.9361,0.9362,0.9335,0.9352,0.9338,0.9331,0.9323,0.9336,0.9309,0.9324,0.9328,0.9333,0.9343,0.9211,0.9335,0.9334,0.9334,0.9334,0.9333,0,0.9487,0.9475,0.9484,0.9479,0.9487,0.945,0.9443,0.9452,0.9468,0.9459,0.9463,0.9477,0.9484,0.9459,0.9463,0.9479,0.9461,0.9481,0.948,0.9478,0.9365,0.9356,0.9496,0.9496,0.9496,0.9496,0.9496,0.9496,0.9555,0.9587,0.9568,0.9597,0.9585,0.9602,0.9601,0.9599,0.9592,0.961,0.9617,0.9601,0.9586,0.959,0.9596,0.9588,0.9593,0.962,0.9607,0.9502,0.9486,0.9471,0.9462,0.9621,0.9622,0.9718,0.9719,0.972]}]]